Muncie, IN

1:24 AM EST on December 12, 2017 (GMT -0500)
Delaware County-Johnson

Weather History for KMIE - November, 2014

Change the Weather History Date:

Saturday, November 1, 2014

  Actual Average Record
Temperature  
Mean Temperature 35 °F 49 °F  
Max Temperature 43 °F 58 °F 80 °F (2016)
Min Temperature 27 °F 39 °F 25 °F (1962)
Degree Days  
Heating Degree Days 30 16  
Month to date heating degree days 30 16  
Since 1 July heating degree days 525 480  
Cooling Degree Days 0 0  
Month to date cooling degree days 0 0  
Year to date cooling degree days 831 955  
Moisture  
Dew Point 25 °F    
Average Humidity 66    
Maximum Humidity 82    
Minimum Humidity 49    
Precipitation  
Precipitation 0.00 in 0.11 in 1.10 in (1979)
Month to date precipitation 0.00 0.11  
Year to date precipitation 34.84 33.90  
Sea Level Pressure  
Sea Level Pressure 30.28 in    
Wind  
Wind Speed 14 mph (North)    
Max Wind Speed 26 mph    
Max Gust Speed 33 mph    
Visibility 10 miles    
Events      
T = Trace of Precipitation, MM = Missing Value Source: NWS Daily Summary

Daily Weather History Graph

Daily Weather History Graph

Search for Another Location

Airport or City:

Trip Planner

Search our weather history database for the weather conditions in past years. The results will help you decide how hot, cold, wet, or windy it might be!

Date:

Astronomy

Nov. 01, 2014 Rise Set
Actual Time 8:11 AM EDT 6:38 PM EDT
Civil Twilight 7:42 AM EDT 7:06 PM EDT
Nautical Twilight 7:10 AM EDT 7:38 PM EDT
Astronomical Twilight 6:39 AM EDT 8:10 PM EDT
Moon 3:32 PM EDT (11/1) 2:05 AM EDT (11/1)
Length of Visible Light 11h 24m
Length of Day
10h 27m
Waxing Gibbous, 67% of the Moon is Illuminated
Nov 1
Waxing Gibbous
Nov 6
Full
Nov 14
Last Quarter
Nov 22
New
Nov 29
First Quarter

Hourly Weather History & Observations

Time (EDT) Temp. Windchill Dew Point Humidity Pressure Visibility Wind Dir Wind Speed Gust Speed Precip Events Conditions
12:53 AM 34.0 °F 21.5 °F 28.0 °F 79% 30.14 in 10.0 mi North 24.2 mph 28.8 mph N/A   Overcast
1:24 AM 34.0 °F 22.7 °F 28.0 °F 79% 30.13 in 10.0 mi North 19.6 mph - N/A   Overcast
1:53 AM 33.1 °F 21.2 °F 27.0 °F 78% 30.15 in 10.0 mi North 20.7 mph - N/A   Overcast
2:53 AM 33.1 °F 19.6 °F 25.0 °F 72% 30.16 in 10.0 mi North 27.6 mph 32.2 mph N/A   Overcast
3:53 AM 33.1 °F 21.5 °F 26.1 °F 75% 30.17 in 10.0 mi North 19.6 mph 31.1 mph N/A   Overcast
4:53 AM 33.1 °F 20.9 °F 25.0 °F 72% 30.18 in 10.0 mi North 21.9 mph 32.2 mph N/A   Overcast
5:53 AM 33.1 °F 21.5 °F 25.0 °F 72% 30.21 in 10.0 mi North 19.6 mph 27.6 mph N/A   Overcast
6:02 AM 33.1 °F 22.2 °F 25.0 °F 72% 30.20 in 10.0 mi North 17.3 mph 26.5 mph N/A   Overcast
6:13 AM 33.1 °F 21.9 °F 25.0 °F 72% 30.21 in 10.0 mi North 18.4 mph - N/A   Overcast
6:53 AM 33.1 °F 22.6 °F 25.0 °F 72% 30.25 in 10.0 mi North 16.1 mph - N/A   Overcast
7:53 AM 32.0 °F 20.1 °F 25.0 °F 75% 30.27 in 10.0 mi North 19.6 mph 27.6 mph N/A   Overcast
8:53 AM 32.0 °F 20.8 °F 24.1 °F 73% 30.31 in 10.0 mi North 17.3 mph - N/A   Overcast
9:53 AM 33.1 °F 20.9 °F 24.1 °F 70% 30.33 in 10.0 mi North 21.9 mph 27.6 mph N/A   Scattered Clouds
10:27 AM 34.0 °F 21.8 °F 25.0 °F 70% 30.32 in 10.0 mi North 23.0 mph 28.8 mph N/A   Mostly Cloudy
10:53 AM 34.0 °F 22.1 °F 25.0 °F 70% 30.34 in 10.0 mi North 21.9 mph 25.3 mph N/A   Mostly Cloudy
11:53 AM 37.0 °F 28.5 °F 26.1 °F 65% 30.35 in 10.0 mi NNE 13.8 mph - N/A   Mostly Cloudy
12:15 PM 37.9 °F 28.5 °F 28.0 °F 68% 30.33 in 10.0 mi North 17.3 mph - N/A   Scattered Clouds
12:53 PM 37.9 °F 30.5 °F 27.0 °F 65% 30.34 in 10.0 mi North 11.5 mph 21.9 mph N/A   Partly Cloudy
1:53 PM 39.9 °F 32.1 °F 27.0 °F 60% 30.31 in 10.0 mi North 13.8 mph - N/A   Clear
2:53 PM 41.0 °F 33.1 °F 27.0 °F 57% 30.31 in 10.0 mi North 15.0 mph 21.9 mph N/A   Clear
3:53 PM 42.1 °F 33.9 °F 26.1 °F 53% 30.30 in 10.0 mi North 17.3 mph - N/A   Clear
4:53 PM 42.1 °F 34.2 °F 25.0 °F 51% 30.31 in 10.0 mi North 16.1 mph - N/A   Clear
5:53 PM 41.0 °F 33.5 °F 24.1 °F 51% 30.33 in 10.0 mi North 13.8 mph - N/A   Clear
6:53 PM 37.0 °F 30.4 °F 23.0 °F 57% 30.34 in 10.0 mi North 9.2 mph - N/A   Clear
7:53 PM 33.1 °F 26.9 °F 24.1 °F 70% 30.36 in 10.0 mi North 6.9 mph - N/A   Clear
8:53 PM 32.0 °F 25.6 °F 24.1 °F 73% 30.36 in 10.0 mi North 6.9 mph - N/A   Clear
9:53 PM 30.9 °F 27.5 °F 21.9 °F 69% 30.38 in 10.0 mi NNW 3.5 mph - N/A   Clear
10:53 PM 30.9 °F 27.5 °F 21.0 °F 67% 30.39 in 10.0 mi NW 3.5 mph - N/A   Clear
11:53 PM 28.0 °F - 21.0 °F 75% 30.39 in 10.0 mi Calm Calm - N/A   Clear